Home > Time Zones > World Clock > Weather > Palau > Koror > Past weeks

Flag for Palau Weather past 2 weeks in Koror, Palau

Now
75 °F

Passing clouds.


Feels Like: 73 °F
Forecast: 76 / 85 °F
Wind: 3 mph from Northeast

Location: Koror / Palau Island

Current Time: Oct 26, 2014 at 4:49:07 AM

Latest Report: Oct 26, 2014 at 3:50 AM


Visibility: 15 mi

Pressure: 29.84 "Hg

Humidity: 100%

Dew point: 75 °F

Location of KororLocation

Historic Weather in Koror — Graph

°F

Koror temperature yesterday

Maximum temperature yesterday: 88 °F (at 8:55 AM)
Minimum temperature yesterday: 75 °F (at 4:55 AM)
Average temperature yesterday: 82 °F

Past Weeks' High & Low Weather Summary

 TemperatureHumidityPressure
High88 °F (Oct 11, 11:54 AM)100% (Oct 12, 10:50 PM)29.93 "Hg (Oct 12, 10:50 PM)
Low73 °F (Oct 13, 5:51 AM)66% (Oct 18, 1:55 PM)29.76 "Hg (Oct 22, 3:50 PM)
Average81 °F87%29.85 "Hg
* Reported Oct 11 3:52 AM — Oct 26 3:50 AM, Koror, Weather by CustomWeather, © 2014

Note: Actual official high and low records may vary slightly from our data, if they occured in-between our weather recording intervals... More about our weather records

Advertising

Koror weather history for previous 24 hours

 ConditionsComfort  
Time TempWeatherWind HumidityBarometerVisibility
3:50 AM
Oct 26
75 °FPassing clouds.3 mph100%29.84 "Hg15 mi
2:50 AM75 °FPassing clouds.No wind100%29.84 "Hg15 mi
1:50 AM77 °FPassing clouds.No wind94%29.85 "Hg15 mi
12:51 AM77 °FPassing clouds.No wind94%29.86 "Hg15 mi
11:50 PM
Oct 25
79 °FPassing clouds.No wind94%29.89 "Hg15 mi
10:51 PM77 °FPassing clouds.No wind94%29.90 "Hg15 mi
9:51 PM79 °FPassing clouds.No wind94%29.91 "Hg15 mi
8:53 PM79 °FPassing clouds.No wind94%29.92 "Hg15 mi
7:50 PM79 °FPassing clouds.No wind94%29.90 "Hg15 mi
6:50 PM81 °FPartly cloudy.No wind89%29.88 "Hg15 mi
5:51 PM84 °FPartly cloudy.No wind79%29.86 "Hg15 mi
4:53 PM86 °FBroken clouds.7 mph70%29.85 "Hg15 mi
3:50 PM86 °FBroken clouds.8 mph70%29.83 "Hg15 mi
2:51 PM88 °FBroken clouds.9 mph70%29.83 "Hg15 mi
1:54 PM88 °FBroken clouds.12 mph70%29.83 "Hg15 mi
12:55 PM86 °FBroken clouds.9 mph75%29.85 "Hg15 mi
11:52 AM86 °FBroken clouds.8 mph75%29.86 "Hg15 mi
10:50 AM88 °FBroken clouds.9 mph70%29.88 "Hg15 mi
9:51 AM88 °FBroken clouds.9 mph70%29.89 "Hg15 mi
8:55 AM88 °FBroken clouds.5 mph70%29.90 "Hg15 mi
7:50 AM84 °FBroken clouds.5 mph79%29.89 "Hg15 mi
6:50 AM79 °FBroken clouds.No wind94%29.88 "Hg15 mi
5:51 AM75 °FBroken clouds.No wind100%29.85 "Hg14 mi
4:55 AM75 °FPartly cloudy.No wind100%29.84 "Hg14 mi
Weather by CustomWeather, © 2014

See weather overviewHow to use our weather pages